Location: Feigenhofen
(48.4939°N, 10.7793°E)
Time: 22:39:46
(UTC+00:00)

MOS 1 Rocket - Pass Details

Date: 26 May 2022
Orbit: 615 x 828 km, 97.5° (Epoch: 24 June)

Event Time Altitude Azimuth Distance (km) Brightness Sun altitude
Exits shadow 00:44:07 11° 139° (SE) 1,918 5.3 -17.5°
Maximum altitude 00:47:59 41° 70° (ENE) 894 4.2 -17.3°
Drops below altitude 10° 00:52:03 10° 360° (N) 2,006 6.7 -17.0°
Sets 00:54:21 0° 353° (N) 2,935 7.6 -16.9°
